Miscellaneous Local Product
Issued by NWS North Platte, NE

Home | Current Version | Previous Version | Text Only | Print | Product List | Glossary On
Versions: 1 2 3 4 5 6 7 8 9 10 11 12 13 14 15 16 17 18 19 20 21 22 23 24 25 26 27 28 29 30 31 32 33 34 35 36 37 38 39 40 41 42 43 44 45 46 47 48 49 50
000
AXUS43 KLBF 251910
MISLBF


WESTERN AND NORTH CENTRAL NEBRASKA HOURLY WEATHER ROUNDUP
NATIONAL WEATHER SERVICE NORTH PLATTE NE
200 PM CDT SAT APR 25 2015

***STATIONS NOT REPORTING VARIABLES SUCH AS SKY/WEATHER OR
PRESSURE ARE PROVIDED BY THE NEBRASKA DEPARTMENT OF
ROADS...RAWS...AND APRS NETWORKS...AND ARE NOT UNDER
NATIONAL WEATHER SERVICE QUALITY CONTROL***

...OBSERVATIONS IN AND NEAR THE EASTERN PANHANDLE OF NEBRASKA...

CITY           SKY/WX    TMP DP  RH WIND       PRES   REMARKS
PINE RIDGE     CLOUDY    54  47  77 E9        29.72F
CHADRON        MOSUNNY   64  49  57 NE10      29.68F
ALLIANCE       SUNNY     66  45  46 E8        29.69F
SIDNEY         MOSUNNY   66  41  40 E6G16     29.71F
WHITECLAY        N/A     53  46  77 E7          N/A
$$

...OBSERVATIONS IN NORTH CENTRAL NEBRASKA...

CITY           SKY/WX    TMP DP  RH WIND       PRES   REMARKS
VALENTINE      CLOUDY    59  48  67 E7        29.72F
THEDFORD       PTSUNNY   64  51  64 NE13      29.71F
AINSWORTH      CLOUDY    58  48  69 E9G16     29.73R
O`NEILL        CLOUDY    51  49  92 NE10      29.75R FOG
ORD            CLOUDY    50  46  86 NE10      29.72R
BROKEN BOW     CLOUDY    59  50  72 NE12      29.70S
BROWNLEE         N/A     60  50  69 NW6         N/A
SPRINGVIEW       N/A     56  48  75 E9          N/A
HALSEY           N/A     61  48  62 NE7         N/A
BREWSTER         N/A     60  53  77 E14         N/A
ROSE             N/A     53  51  94 N10         N/A
NEWPORT          N/A     49  47  93 NE8         N/A
SARGENT          N/A     54  50  87 E7          N/A
COMSTOCK         N/A     55  54  97 E10         N/A
EWING            N/A     54  49  83 NE7G14      N/A
$$

...OBSERVATIONS IN SOUTHWEST NEBRASKA AND FAR NORTHEAST COLORADO...

CITY           SKY/WX    TMP DP  RH WIND       PRES   REMARKS
WRAY           FAIR      69  41  36 N5        29.71S
HOLYOKE        FAIR      68  45  42 NE6       29.71F
IMPERIAL       MOSUNNY   66  43  43 CALM      29.69F
OGALLALA       MOSUNNY   66  47  49 E3        29.69F
MCCOOK         MOSUNNY   69  49  48 NE8       29.67F
LEXINGTON      PTSUNNY   62  51  68 NE12      29.69S
SUTHERLAND       N/A     61  49  65 CALM        N/A
BRADY            N/A     65  52  62 CALM        N/A
$$

...NORTH PLATTE AREA...

CITY           SKY/WX    TMP DP  RH WIND       PRES   REMARKS
$$

...SOME WEATHER OBSERVATIONS FROM AROUND THE REGION...

CITY           SKY/WX    TMP DP  RH WIND       PRES   REMARKS
DENVER         PTSUNNY   65  27  23 E10       29.71F
LARAMIE        CLOUDY    48  32  53 NW13      29.78F
CHEYENNE       PTSUNNY   60  28  29 S10       29.74F
SCOTTSBLUFF    MOSUNNY   68  37  32 W7        29.69F
RAPID CITY     CLOUDY    50  46  86 SE16      29.71F FOG
PIERRE         CLOUDY    50  48  93 E12       29.76S
WINNER         CLOUDY    57  48  72 E14       29.74S
SIOUX FALLS    CLOUDY    57  43  59 E18       29.77R
OMAHA          CLOUDY    50  46  86 N12       29.70R FOG
GRAND ISLAND   CLOUDY    48  46  93 N12       29.72R FOG
KANSAS CITY    CLOUDY    58  57  97 N13       29.54R
WICHITA        MOSUNNY   75  51  43 NW20G26   29.62R
HAYS           PTSUNNY   68  52  56 N13G22    29.66R
LIBERAL        SUNNY     79  37  22 N15G22    29.70S
GOODLAND       SUNNY     68  43  40 N10       29.71R
$$



USA.gov is the U.S. government's official web portal to all federal, state and local government web resources and services.